When you browse on this site, cookies collect data to enhance your experience and personalize the content and advertising you see.
Visit our Privacy Policy to learn more. By continuing to use the site, you agree to this use of cookies and data.
  • en Suisse
  • Liste des pays
  • À 7 jours
  • Température de l'eau
  • Carte satellitaire
  • Carte météo
  • Widgets météo
  • user-avatar
    Se connecter

    Météo par heure à Campo Grande

    Ce jour, 18 Novembre, Dimanche

    Heure Température Précipitation Vent Pression Humidité
    00:00 +25°C° 0.3 mm 2 m/s 708 mmHg 89%
    01:00 +25°C° 0.3 mm 2 m/s 708 mmHg 89%
    02:00 +24°C° 0 mm 2 m/s 708 mmHg 90%
    03:00 +24°C° 0.9 mm 2 m/s 708 mmHg 90%
    04:00 +24°C° 0.9 mm 2 m/s 708 mmHg 91%
    05:00 +24°C° 0.9 mm 2 m/s 708 mmHg 92%
    06:00 +25°C° 0.6 mm 3 m/s 708 mmHg 88%
    07:00 +26°C° 0.6 mm 4 m/s 709 mmHg 83%
    08:00 +28°C° 0.6 mm 5 m/s 709 mmHg 79%
    09:00 +29°C° 1.3 mm 5 m/s 709 mmHg 76%
    10:00 +29°C° 1.3 mm 5 m/s 709 mmHg 73%
    11:00 +30°C° 1.3 mm 5 m/s 709 mmHg 71%
    12:00 +30°C° 0.6 mm 5 m/s 709 mmHg 69%
    13:00 +32°C° 0.6 mm 5 m/s 708 mmHg 68%
    14:00 +32°C° 0.6 mm 5 m/s 708 mmHg 66%
    15:00 +30°C° 2.7 mm 4 m/s 708 mmHg 73%
    16:00 +28°C° 2.7 mm 3 m/s 708 mmHg 80%
    17:00 +27°C° 2.7 mm 2 m/s 707 mmHg 87%
    18:00 +26°C° 1.8 mm 2 m/s 708 mmHg 88%
    19:00 +25°C° 1.8 mm 3 m/s 708 mmHg 88%
    20:00 +25°C° 1.8 mm 4 m/s 708 mmHg 89%
    21:00 +24°C° 0.5 mm 3 m/s 709 mmHg 90%
    22:00 +24°C° 0.5 mm 3 m/s 709 mmHg 91%
    23:00 +24°C° 0.5 mm 2 m/s 709 mmHg 93%

    Demain, 19 Novembre, Lundi

    Heure Température Précipitation Vent Pression Humidité
    00:00 +24°C° 0.7 mm 2 m/s 709 mmHg 93%
    01:00 +23°C° 0.7 mm 1 m/s 709 mmHg 94%
    02:00 +23°C° 0.7 mm 1 m/s 708 mmHg 94%
    03:00 +23°C° 0.4 mm 1 m/s 708 mmHg 94%
    04:00 +23°C° 0.4 mm 1 m/s 708 mmHg 94%
    05:00 +23°C° 0.4 mm 1 m/s 708 mmHg 94%
    06:00 +24°C° 0.1 mm 1 m/s 709 mmHg 92%
    07:00 +25°C° 0.1 mm 1 m/s 709 mmHg 90%
    08:00 +25°C° 0.1 mm 1 m/s 710 mmHg 87%
    09:00 +26°C° 0.4 mm 2 m/s 710 mmHg 83%
    10:00 +27°C° 0.4 mm 2 m/s 710 mmHg 79%
    11:00 +28°C° 0.4 mm 2 m/s 710 mmHg 75%
    12:00 +29°C° 1.4 mm 2 m/s 709 mmHg 75%
    13:00 +29°C° 1.4 mm 2 m/s 709 mmHg 74%
    14:00 +29°C° 1.4 mm 2 m/s 708 mmHg 73%
    15:00 +29°C° 1.8 mm 2 m/s 708 mmHg 77%
    16:00 +28°C° 1.8 mm 1 m/s 708 mmHg 80%
    17:00 +28°C° 1.8 mm 1 m/s 708 mmHg 84%
    18:00 +27°C° 1.9 mm 2 m/s 708 mmHg 86%
    19:00 +26°C° 1.9 mm 2 m/s 709 mmHg 88%
    20:00 +24°C° 1.9 mm 3 m/s 709 mmHg 90%
    21:00 +24°C° 0.3 mm 3 m/s 709 mmHg 91%
    22:00 +23°C° 0.3 mm 4 m/s 710 mmHg 92%
    23:00 +23°C° 0.3 mm 4 m/s 710 mmHg 93%

    Après-demain, 20 Novembre, Mardi

    Heure Température Précipitation Vent Pression Humidité
    00:00 +22°C° 0 mm 4 m/s 709 mmHg 93%
    01:00 +22°C° 0 mm 4 m/s 709 mmHg 93%
    02:00 +22°C° 0 mm 4 m/s 708 mmHg 93%
    03:00 +21°C° 0 mm 4 m/s 709 mmHg 92%
    04:00 +21°C° 0 mm 4 m/s 709 mmHg 92%
    05:00 +20°C° 0 mm 4 m/s 709 mmHg 91%
    06:00 +21°C° 0 mm 4 m/s 709 mmHg 88%
    07:00 +21°C° 0 mm 4 m/s 710 mmHg 85%
    08:00 +22°C° 0 mm 4 m/s 710 mmHg 82%
    09:00 +25°C° 0 mm 4 m/s 711 mmHg 77%
    10:00 +27°C° 0 mm 3 m/s 711 mmHg 72%
    11:00 +28°C° 0 mm 3 m/s 711 mmHg 67%
    12:00 +29°C° 0 mm 3 m/s 710 mmHg 65%
    13:00 +30°C° 0 mm 3 m/s 709 mmHg 64%
    14:00 +30°C° 0 mm 3 m/s 709 mmHg 62%
    15:00 +29°C° 0 mm 3 m/s 708 mmHg 65%
    16:00 +29°C° 0 mm 3 m/s 708 mmHg 69%
    17:00 +28°C° 0 mm 3 m/s 708 mmHg 72%
    18:00 +27°C° 0 mm 3 m/s 708 mmHg 75%
    19:00 +26°C° 0 mm 3 m/s 709 mmHg 77%
    20:00 +25°C° 0 mm 3 m/s 709 mmHg 80%
    21:00 +24°C° 0 mm 3 m/s 710 mmHg 81%
    22:00 +24°C° 0 mm 3 m/s 710 mmHg 83%
    23:00 +24°C° 0 mm 3 m/s 710 mmHg 84%

    21 Novembre, Mercredi

    Heure Température Précipitation Vent Pression Humidité
    00:00 +22°C° 0 mm 3 m/s 709 mmHg 86%
    01:00 +22°C° 0 mm 3 m/s 709 mmHg 87%
    02:00 +22°C° 0 mm 3 m/s 708 mmHg 89%
    03:00 +21°C° 0 mm 3 m/s 708 mmHg 90%
    04:00 +21°C° 0 mm 3 m/s 709 mmHg 91%
    05:00 +21°C° 0 mm 3 m/s 709 mmHg 92%
    06:00 +22°C° 0 mm 3 m/s 709 mmHg 88%
    07:00 +24°C° 0 mm 3 m/s 710 mmHg 85%
    08:00 +25°C° 0 mm 3 m/s 710 mmHg 81%
    09:00 +26°C° 0 mm 3 m/s 710 mmHg 77%
    10:00 +27°C° 0 mm 3 m/s 710 mmHg 73%
    11:00 +29°C° 0 mm 2 m/s 710 mmHg 69%
    12:00 +29°C° 0 mm 2 m/s 709 mmHg 66%
    13:00 +30°C° 0 mm 2 m/s 708 mmHg 63%
    14:00 +31°C° 0 mm 2 m/s 708 mmHg 60%
    15:00 +30°C° 0.1 mm 2 m/s 708 mmHg 64%
    16:00 +30°C° 0.1 mm 2 m/s 707 mmHg 68%
    17:00 +29°C° 0.1 mm 2 m/s 707 mmHg 72%
    18:00 +28°C° 0.1 mm 2 m/s 708 mmHg 76%
    19:00 +26°C° 0.1 mm 2 m/s 708 mmHg 81%
    20:00 +25°C° 0.1 mm 2 m/s 708 mmHg 86%
    21:00 +25°C° 0.1 mm 2 m/s 708 mmHg 88%
    22:00 +24°C° 0.1 mm 2 m/s 708 mmHg 91%
    23:00 +24°C° 0.1 mm 2 m/s 708 mmHg 93%

    22 Novembre, Jeudi

    Heure Température Précipitation Vent Pression Humidité
    00:00 +23°C° 0 mm 2 m/s 708 mmHg 94%
    01:00 +23°C° 0 mm 2 m/s 707 mmHg 94%
    02:00 +23°C° 0 mm 2 m/s 707 mmHg 95%
    03:00 +23°C° 0 mm 2 m/s 707 mmHg 95%
    04:00 +23°C° 0 mm 2 m/s 707 mmHg 96%
    05:00 +21°C° 0 mm 2 m/s 708 mmHg 96%
    06:00 +24°C° 0 mm 2 m/s 708 mmHg 90%
    07:00 +26°C° 0 mm 3 m/s 709 mmHg 83%
    08:00 +27°C° 0 mm 3 m/s 710 mmHg 77%
    09:00 +28°C° 0.4 mm 3 m/s 709 mmHg 72%
    10:00 +30°C° 0.4 mm 3 m/s 709 mmHg 67%
    11:00 +31°C° 0.4 mm 2 m/s 709 mmHg 62%
    12:00 +31°C° 0.9 mm 2 m/s 708 mmHg 61%
    13:00 +31°C° 0.9 mm 2 m/s 707 mmHg 60%
    14:00 +32°C° 0.9 mm 1 m/s 707 mmHg 60%
    15:00 +31°C° 0.8 mm 1 m/s 707 mmHg 64%
    16:00 +30°C° 0.8 mm 1 m/s 707 mmHg 68%
    17:00 +29°C° 0.8 mm 2 m/s 706 mmHg 72%
    18:00 +28°C° 1 mm 2 m/s 707 mmHg 78%
    19:00 +26°C° 1 mm 2 m/s 707 mmHg 83%
    20:00 +25°C° 1 mm 2 m/s 708 mmHg 89%
    21:00 +24°C° 0.7 mm 2 m/s 708 mmHg 90%
    22:00 +24°C° 0.7 mm 2 m/s 708 mmHg 91%
    23:00 +24°C° 0.7 mm 3 m/s 708 mmHg 92%

    23 Novembre, Vendredi

    Heure Température Précipitation Vent Pression Humidité
    00:00 +22°C° 0 mm 3 m/s 707 mmHg 92%
    01:00 +22°C° 0 mm 3 m/s 707 mmHg 92%
    02:00 +22°C° 0 mm 3 m/s 706 mmHg 92%
    03:00 +22°C° 0 mm 3 m/s 707 mmHg 93%
    04:00 +22°C° 0 mm 3 m/s 707 mmHg 93%
    05:00 +21°C° 0 mm 3 m/s 708 mmHg 93%
    06:00 +24°C° 0 mm 3 m/s 708 mmHg 89%
    07:00 +25°C° 0 mm 4 m/s 709 mmHg 84%
    08:00 +26°C° 0 mm 4 m/s 709 mmHg 80%
    09:00 +27°C° 0.4 mm 4 m/s 709 mmHg 77%
    10:00 +28°C° 0.4 mm 4 m/s 709 mmHg 74%
    11:00 +29°C° 0.4 mm 3 m/s 709 mmHg 71%
    12:00 +29°C° 0.8 mm 3 m/s 708 mmHg 69%
    13:00 +29°C° 0.8 mm 2 m/s 708 mmHg 67%
    14:00 +30°C° 0.8 mm 2 m/s 707 mmHg 65%
    15:00 +29°C° 1.6 mm 1 m/s 707 mmHg 69%
    16:00 +29°C° 1.6 mm 1 m/s 707 mmHg 74%
    17:00 +26°C° 1.6 mm 0 m/s 707 mmHg 78%
    18:00 +27°C° 1.7 mm 1 m/s 707 mmHg 82%
    19:00 +25°C° 1.7 mm 1 m/s 707 mmHg 85%
    20:00 +24°C° 1.7 mm 2 m/s 708 mmHg 89%
    21:00 +24°C° 1.5 mm 2 m/s 708 mmHg 90%
    22:00 +24°C° 1.5 mm 2 m/s 708 mmHg 90%
    23:00 +24°C° 1.5 mm 3 m/s 708 mmHg 90%
    Voir plus